User: anonymous   Login
Location: Unspecified
(0.0000°N, 0.0000°E)
Time: 05:01:50
(UTC+00:00)
Language:

IBEX - Orbit

View from above orbital plane
View from above orbital plane
View from above satellite
View from above satellite

Ground track
Ground track

The orbit data is extracted from the following two-line orbital elements,

1 33401U 08051A   15048.84901584 -.00002393  00000-0  00000+0 0  9999
2 33401 015.4208 135.5270 5969468 002.5024 000.6521 00.12198463  2703
Epoch (UTC): 17 February 2015 20:22:34
Eccentricity: 0.5969468
inclination: 15.4208°
perigee height: 62840 km
apogee height: 267874 km
right ascension of ascending node: 135.5270°
argument of perigee: 2.5024°
revolutions per day: 0.12198463
mean anomaly at epoch: 0.6521°
orbit number at epoch: 270

The dashed part of the orbit path shows where the satellite is in the earth's shadow,  

DLR